,,PA_Meas_PMT16A,,PR_Meas_QMR101_102,,RH_Meas_QMH101,,SR_Meas_QMS101,,TA_Meas_QMH101,,GenWind,,GenWind,
time,status,PA,status,PR,status,RH,status,SR,status,TA,status,DirAvg,status,SpdAvg,
2013-12-16, 00:00:05,VALID,917.648,VALID,0,VALID,79.4207,VALID,0,VALID,20.795,VALID,37,VALID,0,
2013-12-16, 00:01:05,VALID,917.694,VALID,0,VALID,78.9786,VALID,0,VALID,20.756,VALID,37,VALID,0,
2013-12-16, 00:02:05,VALID,917.677,VALID,0,VALID,80.3965,VALID,0,VALID,20.7755,VALID,37,VALID,0,
2013-12-16, 00:03:05,VALID,917.656,VALID,0,VALID,79.5503,VALID,0,VALID,20.717,VALID,37,VALID,0,
2013-12-16, 00:04:05,VALID,917.673,VALID,0,VALID,80.145,VALID,0,VALID,20.699,VALID,37,VALID,0,
2013-12-16, 00:05:05,VALID,917.668,VALID,0,VALID,80.4194,VALID,0,VALID,20.699,VALID,37,VALID,0,
2013-12-16, 00:06:05,VALID,917.646,VALID,0,VALID,79.9315,VALID,0,VALID,20.6975,VALID,38,VALID,0,
2013-12-16, 00:07:05,VALID,917.641,VALID,0,VALID,79.5961,VALID,0,VALID,20.7381,VALID,35,VALID,0,
2013-12-16, 00:08:05,VALID,917.63,VALID,0,VALID,79.4589,VALID,0,VALID,20.7365,VALID,42,VALID,0,
2013-12-16, 00:09:05,VALID,917.642,VALID,0,VALID,79.8629,VALID,0,VALID,20.7365,VALID,66,VALID,0,
2013-12-16, 00:10:05,VALID,917.635,VALID,0,VALID,80.3127,VALID,0,VALID,20.7576,VALID,54,VALID,0,
2013-12-16, 00:11:05,VALID,917.659,VALID,0,VALID,79.9849,VALID,0,VALID,20.7185,VALID,54,VALID,0,
2013-12-16, 00:12:05,VALID,917.674,VALID,0,VALID,80.2288,VALID,0,VALID,20.678,VALID,54,VALID,0,
2013-12-16, 00:13:05,VALID,917.668,VALID,0,VALID,79.9468,VALID,0,VALID,20.6569,VALID,64,VALID,0,
2013-12-16, 00:14:05,VALID,917.658,VALID,0,VALID,80.2212,VALID,0,VALID,20.6358,VALID,64,VALID,0,
2013-12-16, 00:15:05,VALID,917.669,VALID,0,VALID,80.6634,VALID,0,VALID,20.6795,VALID,49,VALID,0,
2013-12-16, 00:16:05,VALID,917.681,VALID,0,VALID,79.8095,VALID,0,VALID,20.5984,VALID,49,VALID,0,
2013-12-16, 00:17:05,VALID,917.667,VALID,0,VALID,80.4423,VALID,0,VALID,20.66,VALID,49,VALID,0,
2013-12-16, 00:18:05,VALID,917.639,VALID,0,VALID,80.4347,VALID,0,VALID,20.6569,VALID,33,VALID,0,
2013-12-16, 00:19:05,VALID,917.65,VALID,0,VALID,80.2974,VALID,0,VALID,20.717,VALID,33,VALID,0,
2013-12-16, 00:20:05,VALID,917.615,VALID,0,VALID,79.6418,VALID,0,VALID,20.756,VALID,96,VALID,0,
2013-12-16, 00:21:05,VALID,917.615,VALID,0,VALID,79.7181,VALID,0,VALID,20.8145,VALID,53,VALID,0,
2013-12-16, 00:22:05,VALID,917.586,VALID,0,VALID,79.7638,VALID,0,VALID,20.8551,VALID,44,VALID,0,
2013-12-16, 00:23:05,VALID,917.518,VALID,0,VALID,79.5122,VALID,0,VALID,20.8941,VALID,60,VALID,0,
2013-12-16, 00:24:05,VALID,917.471,VALID,0,VALID,80.0154,VALID,0,VALID,20.873,VALID,33,VALID,0,
2013-12-16, 00:25:05,VALID,917.423,VALID,0,VALID,79.3293,VALID,0,VALID,20.8551,VALID,22,VALID,0,
2013-12-16, 00:26:05,VALID,917.406,VALID,0,VALID,78.8642,VALID,0,VALID,20.873,VALID,353,VALID,0,
2013-12-16, 00:27:05,VALID,917.431,VALID,0,VALID,78.788,VALID,0,VALID,20.912,VALID,26,VALID,0,
2013-12-16, 00:28:05,VALID,917.463,VALID,0,VALID,78.9024,VALID,0,VALID,20.9511,VALID,26,VALID,0,
2013-12-16, 00:29:05,VALID,917.468,VALID,0,VALID,78.8642,VALID,0,VALID,20.9527,VALID,26,VALID,0,
2013-12-16, 00:30:05,VALID,917.457,VALID,0,VALID,79.3445,VALID,0,VALID,20.9136,VALID,26,VALID,0,
2013-12-16, 00:31:05,VALID,917.444,VALID,0,VALID,79.5199,VALID,0,VALID,20.8535,VALID,26,VALID,0,
2013-12-16, 00:32:05,VALID,917.432,VALID,0,VALID,79.9239,VALID,0,VALID,20.795,VALID,26,VALID,0,
2013-12-16, 00:33:05,VALID,917.456,VALID,0,VALID,80.7853,VALID,0,VALID,20.7755,VALID,26,VALID,0,
2013-12-16, 00:34:05,VALID,917.422,VALID,0,VALID,81.0598,VALID,0,VALID,20.717,VALID,26,VALID,0,
2013-12-16, 00:35:05,VALID,917.374,VALID,0,VALID,81.7306,VALID,0,VALID,20.639,VALID,26,VALID,0,
2013-12-16, 00:36:05,VALID,917.408,VALID,0,VALID,82.0889,VALID,0,VALID,20.5609,VALID,26,VALID,0,
2013-12-16, 00:37:05,VALID,917.396,VALID,0,VALID,82.432,VALID,0,VALID,20.504,VALID,26,VALID,0,
2013-12-16, 00:38:05,VALID,917.338,VALID,0,VALID,82.2338,VALID,0,VALID,20.465,VALID,26,VALID,0,
2013-12-16, 00:39:05,VALID,917.334,VALID,0,VALID,82.5463,VALID,0,VALID,20.3854,VALID,26,VALID,0,
2013-12-16, 00:40:05,VALID,917.32,VALID,0,VALID,83.5831,VALID,0,VALID,20.4259,VALID,23,VALID,0,
2013-12-16, 00:41:05,VALID,917.325,VALID,0,VALID,83.3163,VALID,0,VALID,20.3869,VALID,291,VALID,0,
2013-12-16, 00:42:05,VALID,917.297,VALID,0,VALID,82.8055,VALID,0,VALID,20.3869,VALID,323,VALID,0,
2013-12-16, 00:43:05,VALID,917.321,VALID,0,VALID,82.6683,VALID,0,VALID,20.3854,VALID,336,VALID,0,
2013-12-16, 00:44:05,VALID,917.295,VALID,0,VALID,82.2262,VALID,0,VALID,20.4228,VALID,276,VALID,0,
2013-12-16, 00:45:05,VALID,917.33,VALID,0,VALID,82.3253,VALID,0.107441,VALID,20.4813,VALID,276,VALID,0,
2013-12-16, 00:46:05,VALID,917.278,VALID,0,VALID,83.0571,VALID,0,VALID,20.5009,VALID,276,VALID,0,
2013-12-16, 00:47:05,VALID,917.27,VALID,0,VALID,83.0342,VALID,0,VALID,20.5204,VALID,276,VALID,0,
2013-12-16, 00:48:05,VALID,917.244,VALID,0,VALID,82.3253,VALID,0,VALID,20.5204,VALID,276,VALID,0,
2013-12-16, 00:49:05,VALID,917.231,VALID,0,VALID,82.6759,VALID,0.107441,VALID,20.5609,VALID,276,VALID,0,
2013-12-16, 00:50:05,VALID,917.217,VALID,0,VALID,82.9199,VALID,0,VALID,20.5414,VALID,276,VALID,0,
2013-12-16, 00:51:05,VALID,917.182,VALID,0,VALID,82.7903,VALID,0.107441,VALID,20.5024,VALID,276,VALID,0,
2013-12-16, 00:52:05,VALID,917.184,VALID,0,VALID,82.4244,VALID,0,VALID,20.4618,VALID,276,VALID,0,
2013-12-16, 00:53:05,VALID,917.16,VALID,0,VALID,82.958,VALID,0,VALID,20.4829,VALID,276,VALID,0,
2013-12-16, 00:54:05,VALID,917.149,VALID,0,VALID,82.9046,VALID,0,VALID,20.5219,VALID,276,VALID,0,
2013-12-16, 00:55:05,VALID,917.108,VALID,0,VALID,82.6759,VALID,0.107441,VALID,20.5009,VALID,276,VALID,0,
2013-12-16, 00:56:05,VALID,917.166,VALID,0,VALID,82.6683,VALID,0.107441,VALID,20.5009,VALID,276,VALID,0,
2013-12-16, 00:57:05,VALID,917.192,VALID,0,VALID,82.7598,VALID,0.107441,VALID,20.5219,VALID,276,VALID,0,
2013-12-16, 00:58:05,VALID,917.207,VALID,0,VALID,83.0114,VALID,0,VALID,20.5219,VALID,276,VALID,0,
2013-12-16, 00:59:05,VALID,917.218,VALID,0,VALID,83.1257,VALID,0,VALID,20.4813,VALID,276,VALID,0,
2013-12-16, 01:00:05,VALID,917.208,VALID,0,VALID,84.2769,VALID,0,VALID,20.4813,VALID,276,VALID,0,
2013-12-16, 01:01:05,VALID,917.201,VALID,0,VALID,83.7661,VALID,0.107441,VALID,20.4813,VALID,276,VALID,0,
2013-12-16, 01:02:05,VALID,917.215,VALID,0,VALID,83.1486,VALID,0,VALID,20.5024,VALID,276,VALID,0,
2013-12-16, 01:03:05,VALID,917.217,VALID,0,VALID,84.1473,VALID,0,VALID,20.4813,VALID,279,VALID,0,
2013-12-16, 01:04:05,VALID,917.202,VALID,0,VALID,84.719,VALID,0.107441,VALID,20.4439,VALID,279,VALID,0,
2013-12-16, 01:05:05,VALID,917.212,VALID,0,VALID,84.0024,VALID,0.107441,VALID,20.4049,VALID,278,VALID,0,
2013-12-16, 01:06:05,VALID,917.209,VALID,0,VALID,83.6289,VALID,0.107441,VALID,20.4228,VALID,190,VALID,0,
2013-12-16, 01:07:05,VALID,917.221,VALID,0,VALID,83.484,VALID,0.107441,VALID,20.4829,VALID,190,VALID,0,
2013-12-16, 01:08:05,VALID,917.231,VALID,0,VALID,83.5298,VALID,0.107441,VALID,20.5009,VALID,192,VALID,0,
2013-12-16, 01:09:05,VALID,917.238,VALID,0,VALID,83.3621,VALID,0,VALID,20.5009,VALID,189,VALID,0,
2013-12-16, 01:10:05,VALID,917.246,VALID,0,VALID,81.9517,VALID,0.107441,VALID,20.5399,VALID,208,VALID,0,
2013-12-16, 01:11:05,VALID,917.226,VALID,0,VALID,81.3647,VALID,0.107441,VALID,20.6585,VALID,208,VALID,0,
2013-12-16, 01:12:05,VALID,917.234,VALID,0,VALID,80.9988,VALID,0,VALID,20.6975,VALID,208,VALID,0,
2013-12-16, 01:13:05,VALID,917.222,VALID,0,VALID,80.8768,VALID,0,VALID,20.756,VALID,219,VALID,0,
2013-12-16, 01:14:05,VALID,917.218,VALID,0,VALID,80.4804,VALID,0,VALID,20.8356,VALID,274,VALID,0,
2013-12-16, 01:15:05,VALID,917.211,VALID,0,VALID,80.3584,VALID,0,VALID,20.873,VALID,275,VALID,0,
2013-12-16, 01:16:05,VALID,917.195,VALID,0,VALID,79.9391,VALID,0,VALID,20.912,VALID,258,VALID,0,
2013-12-16, 01:17:05,VALID,917.216,VALID,0,VALID,80.2365,VALID,0,VALID,20.9527,VALID,258,VALID,0,
2013-12-16, 01:18:05,VALID,917.172,VALID,0,VALID,81.0674,VALID,0,VALID,20.9316,VALID,258,VALID,0,
2013-12-16, 01:19:05,VALID,917.176,VALID,0,VALID,81.8907,VALID,0,VALID,20.9527,VALID,258,VALID,0,
2013-12-16, 01:20:05,VALID,917.183,VALID,0,VALID,81.0903,VALID,0,VALID,20.8941,VALID,349,VALID,0,
2013-12-16, 01:21:05,VALID,917.174,VALID,0,VALID,81.4486,VALID,0,VALID,20.8746,VALID,25,VALID,0,
2013-12-16, 01:22:05,VALID,917.167,VALID,0,VALID,81.5248,VALID,0,VALID,20.8145,VALID,25,VALID,0,
2013-12-16, 01:23:05,VALID,917.133,VALID,0,VALID,82.028,VALID,0,VALID,20.7755,VALID,25,VALID,0,
2013-12-16, 01:24:05,VALID,917.115,VALID,0,VALID,81.2732,VALID,0,VALID,20.7365,VALID,266,VALID,0,
2013-12-16, 01:25:05,VALID,917.095,VALID,0,VALID,81.4181,VALID,0,VALID,20.7771,VALID,266,VALID,0,
2013-12-16, 01:26:05,VALID,917.076,VALID,0,VALID,81.4943,VALID,0,VALID,20.7771,VALID,266,VALID,0,
2013-12-16, 01:27:05,VALID,917.038,VALID,0,VALID,81.319,VALID,0,VALID,20.7755,VALID,266,VALID,0,
2013-12-16, 01:28:05,VALID,917.048,VALID,0,VALID,81.6239,VALID,0,VALID,20.7755,VALID,266,VALID,0,
2013-12-16, 01:29:05,VALID,917.049,VALID,0,VALID,81.4714,VALID,0,VALID,20.7771,VALID,266,VALID,0,
2013-12-16, 01:30:05,VALID,917.033,VALID,0,VALID,81.0903,VALID,0,VALID,20.756,VALID,266,VALID,0,
2013-12-16, 01:31:05,VALID,917.009,VALID,0,VALID,82.1271,VALID,0,VALID,20.7755,VALID,266,VALID,0,
2013-12-16, 01:32:05,VALID,917.016,VALID,0,VALID,82.2338,VALID,0,VALID,20.756,VALID,61,VALID,0,
2013-12-16, 01:33:05,VALID,916.986,VALID,0,VALID,81.8907,VALID,0,VALID,20.7771,VALID,61,VALID,0,
2013-12-16, 01:34:05,VALID,916.989,VALID,0,VALID,81.8069,VALID,0,VALID,20.7576,VALID,61,VALID,0,
2013-12-16, 01:35:05,VALID,916.972,VALID,0,VALID,81.7535,VALID,0,VALID,20.7771,VALID,61,VALID,0,
2013-12-16, 01:36:05,VALID,916.974,VALID,0,VALID,82.0737,VALID,0,VALID,20.756,VALID,61,VALID,0,
2013-12-16, 01:37:05,VALID,916.968,VALID,0,VALID,82.5997,VALID,0,VALID,20.7771,VALID,61,VALID,0,
2013-12-16, 01:38:05,VALID,916.882,VALID,0,VALID,82.8284,VALID,0,VALID,20.6975,VALID,61,VALID,0,
2013-12-16, 01:39:05,VALID,916.893,VALID,0,VALID,83.2325,VALID,0,VALID,20.6795,VALID,54,VALID,0,
2013-12-16, 01:40:05,VALID,916.866,VALID,0,VALID,83.2553,VALID,0,VALID,20.639,VALID,40,VALID,0,
2013-12-16, 01:41:05,VALID,916.878,VALID,0,VALID,83.1029,VALID,0,VALID,20.66,VALID,28,VALID,0,
2013-12-16, 01:42:05,VALID,916.846,VALID,0,VALID,82.0661,VALID,0,VALID,20.678,VALID,24,VALID,0,
2013-12-16, 01:43:05,VALID,916.826,VALID,0,VALID,82.8894,VALID,0,VALID,20.717,VALID,44,VALID,0,
2013-12-16, 01:44:05,VALID,916.814,VALID,0,VALID,82.6759,VALID,0.107441,VALID,20.6764,VALID,319,VALID,0,
2013-12-16, 01:45:05,VALID,916.759,VALID,0,VALID,82.9809,VALID,0,VALID,20.6764,VALID,319,VALID,0,
2013-12-16, 01:46:05,VALID,916.759,VALID,0,VALID,83.0952,VALID,0,VALID,20.678,VALID,319,VALID,0,
2013-12-16, 01:47:05,VALID,916.748,VALID,0,VALID,83.3011,VALID,0.107441,VALID,20.678,VALID,319,VALID,0,
2013-12-16, 01:48:05,VALID,916.703,VALID,0,VALID,83.5831,VALID,0.107441,VALID,20.678,VALID,319,VALID,0,
2013-12-16, 01:49:05,VALID,916.68,VALID,0,VALID,83.4688,VALID,0,VALID,20.6585,VALID,319,VALID,0,
2013-12-16, 01:50:05,VALID,916.694,VALID,0,VALID,83.3316,VALID,0,VALID,20.6194,VALID,319,VALID,0,
2013-12-16, 01:51:05,VALID,916.68,VALID,0,VALID,83.2325,VALID,0,VALID,20.5984,VALID,319,VALID,0,
2013-12-16, 01:52:05,VALID,916.593,VALID,0,VALID,83.6822,VALID,0.107441,VALID,20.5984,VALID,319,VALID,0,
2013-12-16, 01:53:05,VALID,916.582,VALID,0,VALID,84.01,VALID,0,VALID,20.5789,VALID,319,VALID,0,
2013-12-16, 01:54:05,VALID,916.559,VALID,0,VALID,84.01,VALID,0,VALID,20.5804,VALID,296,VALID,0,
2013-12-16, 01:55:05,VALID,916.524,VALID,0,VALID,83.3011,VALID,0,VALID,20.5804,VALID,84,VALID,0,
2013-12-16, 01:56:05,VALID,916.499,VALID,0,VALID,83.6441,VALID,0,VALID,20.6194,VALID,57,VALID,0,
2013-12-16, 01:57:05,VALID,916.448,VALID,0,VALID,83.8347,VALID,0,VALID,20.5999,VALID,40,VALID,0,
2013-12-16, 01:58:05,VALID,916.458,VALID,0,VALID,83.6212,VALID,0,VALID,20.5804,VALID,40,VALID,0,
2013-12-16, 01:59:05,VALID,916.412,VALID,0,VALID,83.1257,VALID,0,VALID,20.5609,VALID,34,VALID,0,
2013-12-16, 02:00:05,VALID,916.397,VALID,0,VALID,83.3163,VALID,0,VALID,20.6015,VALID,143,VALID,0,
2013-12-16, 02:01:04,VALID,916.387,VALID,0,VALID,83.2934,VALID,0,VALID,20.621,VALID,95,VALID,0,
2013-12-16, 02:02:04,VALID,916.406,VALID,0,VALID,82.9123,VALID,0,VALID,20.6015,VALID,95,VALID,0,
2013-12-16, 02:03:04,VALID,916.381,VALID,0,VALID,83.1791,VALID,0,VALID,20.582,VALID,95,VALID,0,
2013-12-16, 02:04:04,VALID,916.368,VALID,0,VALID,83.6136,VALID,0,VALID,20.5414,VALID,95,VALID,0,
2013-12-16, 02:05:04,VALID,916.35,VALID,0,VALID,83.4764,VALID,0,VALID,20.543,VALID,95,VALID,0,
2013-12-16, 02:06:04,VALID,916.345,VALID,0,VALID,83.7051,VALID,0,VALID,20.504,VALID,95,VALID,0,
2013-12-16, 02:07:04,VALID,916.308,VALID,0,VALID,82.6531,VALID,0,VALID,20.4845,VALID,87,VALID,0,
2013-12-16, 02:08:04,VALID,916.317,VALID,0,VALID,82.7141,VALID,0,VALID,20.5024,VALID,22,VALID,0,
2013-12-16, 02:09:04,VALID,916.271,VALID,0,VALID,83.0114,VALID,0,VALID,20.5625,VALID,22,VALID,0,
2013-12-16, 02:10:04,VALID,916.297,VALID,0,VALID,82.9123,VALID,0,VALID,20.5414,VALID,22,VALID,0,
2013-12-16, 02:11:04,VALID,916.272,VALID,0,VALID,82.897,VALID,0,VALID,20.543,VALID,22,VALID,0,
2013-12-16, 02:12:04,VALID,916.232,VALID,0,VALID,82.7598,VALID,0,VALID,20.543,VALID,22,VALID,0,
2013-12-16, 02:13:04,VALID,916.241,VALID,0,VALID,82.8742,VALID,0,VALID,20.504,VALID,22,VALID,0,
2013-12-16, 02:14:04,VALID,916.216,VALID,0,VALID,83.3316,VALID,0,VALID,20.4634,VALID,22,VALID,0,
2013-12-16, 02:15:04,VALID,916.213,VALID,0,VALID,83.8423,VALID,0,VALID,20.4454,VALID,22,VALID,0,
2013-12-16, 02:16:04,VALID,916.166,VALID,0,VALID,84.2083,VALID,0,VALID,20.3854,VALID,22,VALID,0,
2013-12-16, 02:17:04,VALID,916.188,VALID,0,VALID,84.2769,VALID,0,VALID,20.3464,VALID,22,VALID,0,
2013-12-16, 02:18:04,VALID,916.174,VALID,0,VALID,84.4827,VALID,0,VALID,20.3284,VALID,22,VALID,0,
2013-12-16, 02:19:04,VALID,916.133,VALID,0,VALID,84.376,VALID,0,VALID,20.2699,VALID,22,VALID,0,
2013-12-16, 02:20:04,VALID,916.107,VALID,0,VALID,84.8334,VALID,0,VALID,20.2309,VALID,22,VALID,0,
2013-12-16, 02:21:04,VALID,916.091,VALID,0,VALID,84.9553,VALID,0,VALID,20.1318,VALID,22,VALID,0,
2013-12-16, 02:22:04,VALID,916.125,VALID,0,VALID,85.0163,VALID,0,VALID,20.0553,VALID,22,VALID,0,
2013-12-16, 02:23:04,VALID,916.105,VALID,0,VALID,85.4509,VALID,0,VALID,20.0163,VALID,22,VALID,0,
2013-12-16, 02:24:04,VALID,916.105,VALID,0,VALID,85.6643,VALID,0,VALID,19.9773,VALID,22,VALID,0,
2013-12-16, 02:25:04,VALID,916.087,VALID,0,VALID,85.8015,VALID,0,VALID,19.9383,VALID,22,VALID,0,
2013-12-16, 02:26:04,VALID,916.103,VALID,0,VALID,86.0989,VALID,0,VALID,19.8993,VALID,22,VALID,0,
2013-12-16, 02:27:04,VALID,916.06,VALID,0,VALID,86.6401,VALID,0,VALID,19.8798,VALID,22,VALID,0,
2013-12-16, 02:28:04,VALID,916.039,VALID,0,VALID,86.4953,VALID,0,VALID,19.8393,VALID,22,VALID,0,
2013-12-16, 02:29:04,VALID,916.034,VALID,0,VALID,86.541,VALID,0,VALID,19.8003,VALID,22,VALID,0,
2013-12-16, 02:30:04,VALID,916.037,VALID,0,VALID,86.9527,VALID,0,VALID,19.7418,VALID,22,VALID,0,
2013-12-16, 02:31:04,VALID,916.029,VALID,0,VALID,86.9451,VALID,0,VALID,19.7028,VALID,22,VALID,0,
2013-12-16, 02:32:04,VALID,916.056,VALID,0,VALID,87.2881,VALID,0,VALID,19.6638,VALID,22,VALID,0,
2013-12-16, 02:33:04,VALID,916.009,VALID,0,VALID,87.1738,VALID,0,VALID,19.6443,VALID,23,VALID,0,
2013-12-16, 02:34:04,VALID,916.006,VALID,0,VALID,87.2043,VALID,0,VALID,19.6638,VALID,44,VALID,0,
2013-12-16, 02:35:04,VALID,916.001,VALID,0,VALID,87.25,VALID,0,VALID,19.6428,VALID,44,VALID,0,
2013-12-16, 02:36:04,VALID,915.975,VALID,0,VALID,87.2043,VALID,0,VALID,19.6443,VALID,44,VALID,0,
2013-12-16, 02:37:04,VALID,915.992,VALID,0,VALID,87.4711,VALID,0,VALID,19.6248,VALID,41,VALID,0,
2013-12-16, 02:38:04,VALID,915.969,VALID,0,VALID,87.4482,VALID,0.107441,VALID,19.5858,VALID,41,VALID,0,
2013-12-16, 02:39:04,VALID,916.02,VALID,0,VALID,87.5778,VALID,0,VALID,19.5663,VALID,41,VALID,0,
2013-12-16, 02:40:04,VALID,916.004,VALID,0,VALID,87.6845,VALID,0,VALID,19.5468,VALID,41,VALID,0,
2013-12-16, 02:41:04,VALID,915.987,VALID,0,VALID,87.6464,VALID,0,VALID,19.5663,VALID,41,VALID,0,
2013-12-16, 02:42:04,VALID,915.989,VALID,0,VALID,87.6388,VALID,0,VALID,19.5468,VALID,41,VALID,0,
2013-12-16, 02:43:04,VALID,915.97,VALID,0,VALID,87.7379,VALID,0,VALID,19.5468,VALID,41,VALID,0,
2013-12-16, 02:44:04,VALID,915.982,VALID,0,VALID,87.8218,VALID,0,VALID,19.5273,VALID,41,VALID,0,
2013-12-16, 02:45:04,VALID,915.958,VALID,0,VALID,87.7989,VALID,0,VALID,19.5273,VALID,41,VALID,0,
2013-12-16, 02:46:04,VALID,915.941,VALID,0,VALID,87.8675,VALID,0,VALID,19.5273,VALID,41,VALID,0,
2013-12-16, 02:47:04,VALID,915.945,VALID,0,VALID,87.9132,VALID,0,VALID,19.5078,VALID,41,VALID,0,
2013-12-16, 02:48:04,VALID,915.939,VALID,0,VALID,87.9285,VALID,0,VALID,19.4883,VALID,41,VALID,0,
2013-12-16, 02:49:04,VALID,915.918,VALID,0,VALID,87.9132,VALID,0,VALID,19.4688,VALID,41,VALID,0,
2013-12-16, 02:50:04,VALID,915.898,VALID,0,VALID,88.0352,VALID,0,VALID,19.4298,VALID,41,VALID,0,
2013-12-16, 02:51:04,VALID,915.886,VALID,0,VALID,88.1038,VALID,0,VALID,19.4103,VALID,41,VALID,0,
2013-12-16, 02:52:04,VALID,915.84,VALID,0,VALID,88.1724,VALID,0,VALID,19.3908,VALID,41,VALID,0,
2013-12-16, 02:53:04,VALID,915.801,VALID,0,VALID,88.3478,VALID,0,VALID,19.3908,VALID,41,VALID,0,
2013-12-16, 02:54:04,VALID,915.771,VALID,0,VALID,88.3478,VALID,0,VALID,19.3908,VALID,41,VALID,0,
2013-12-16, 02:55:04,VALID,915.754,VALID,0,VALID,88.2487,VALID,0,VALID,19.3518,VALID,41,VALID,0,
2013-12-16, 02:56:04,VALID,915.729,VALID,0,VALID,88.5307,VALID,0,VALID,19.2933,VALID,41,VALID,0,
2013-12-16, 02:57:04,VALID,915.741,VALID,0,VALID,88.7061,VALID,0,VALID,19.2543,VALID,41,VALID,0,
2013-12-16, 02:58:04,VALID,915.753,VALID,0,VALID,88.889,VALID,0,VALID,19.2543,VALID,41,VALID,0,
2013-12-16, 02:59:04,VALID,915.742,VALID,0,VALID,88.8967,VALID,0,VALID,19.2348,VALID,41,VALID,0,
2013-12-16, 03:00:04,VALID,915.738,VALID,0,VALID,88.9653,VALID,0.107441,VALID,19.2153,VALID,41,VALID,0,
2013-12-16, 03:01:04,VALID,915.762,VALID,0,VALID,89.0339,VALID,0,VALID,19.2153,VALID,41,VALID,0,
2013-12-16, 03:02:04,VALID,915.764,VALID,0,VALID,89.0034,VALID,0,VALID,19.1958,VALID,41,VALID,0,
2013-12-16, 03:03:04,VALID,915.783,VALID,0,VALID,89.133,VALID,0,VALID,19.1778,VALID,41,VALID,0,
2013-12-16, 03:04:04,VALID,915.754,VALID,0,VALID,89.2702,VALID,0.107441,VALID,19.1568,VALID,41,VALID,0,
2013-12-16, 03:05:04,VALID,915.766,VALID,0,VALID,89.2473,VALID,0,VALID,19.1178,VALID,41,VALID,0,
2013-12-16, 03:06:04,VALID,915.75,VALID,0,VALID,89.0491,VALID,0,VALID,19.0788,VALID,41,VALID,0,
2013-12-16, 03:07:04,VALID,915.752,VALID,0,VALID,89.3769,VALID,0,VALID,19.0008,VALID,41,VALID,0,
2013-12-16, 03:08:04,VALID,915.72,VALID,0,VALID,89.72,VALID,0,VALID,18.9424,VALID,41,VALID,0,
2013-12-16, 03:09:04,VALID,915.676,VALID,0,VALID,89.9944,VALID,0,VALID,18.9438,VALID,41,VALID,0,
2013-12-16, 03:10:04,VALID,915.671,VALID,0,VALID,90.0707,VALID,0,VALID,18.9034,VALID,41,VALID,0,
2013-12-16, 03:11:04,VALID,915.641,VALID,0,VALID,90.0478,VALID,0,VALID,18.9243,VALID,41,VALID,0,
2013-12-16, 03:12:04,VALID,915.589,VALID,0,VALID,89.8038,VALID,0,VALID,18.9424,VALID,41,VALID,0,
2013-12-16, 03:13:04,VALID,915.627,VALID,0,VALID,89.7581,VALID,0.107441,VALID,18.9828,VALID,41,VALID,0,
2013-12-16, 03:14:04,VALID,915.596,VALID,0,VALID,89.7352,VALID,0,VALID,18.9828,VALID,41,VALID,0,
2013-12-16, 03:15:04,VALID,915.624,VALID,0,VALID,89.5904,VALID,0,VALID,19.0203,VALID,41,VALID,0,
2013-12-16, 03:16:04,VALID,915.579,VALID,0,VALID,89.2016,VALID,0,VALID,19.0593,VALID,41,VALID,0,
2013-12-16, 03:17:04,VALID,915.55,VALID,0,VALID,88.95,VALID,0,VALID,19.0983,VALID,41,VALID,0,
2013-12-16, 03:18:04,VALID,915.567,VALID,0,VALID,88.8052,VALID,0,VALID,19.1583,VALID,41,VALID,0,
2013-12-16, 03:19:04,VALID,915.544,VALID,0,VALID,88.5612,VALID,0,VALID,19.1373,VALID,41,VALID,0,
2013-12-16, 03:20:04,VALID,915.531,VALID,0,VALID,88.5917,VALID,0,VALID,19.1178,VALID,41,VALID,0,
2013-12-16, 03:21:04,VALID,915.482,VALID,0,VALID,88.5688,VALID,0,VALID,19.1568,VALID,37,VALID,0,
2013-12-16, 03:22:04,VALID,915.487,VALID,0,VALID,88.6451,VALID,0,VALID,19.1778,VALID,36,VALID,0,
2013-12-16, 03:23:04,VALID,915.499,VALID,0,VALID,88.4621,VALID,0,VALID,19.2363,VALID,21,VALID,0,
2013-12-16, 03:24:04,VALID,915.501,VALID,0,VALID,88.0581,VALID,0,VALID,19.2738,VALID,21,VALID,0,
2013-12-16, 03:25:04,VALID,915.489,VALID,0,VALID,87.8294,VALID,0,VALID,19.3338,VALID,21,VALID,0,
2013-12-16, 03:26:04,VALID,915.52,VALID,0,VALID,87.715,VALID,0,VALID,19.3323,VALID,21,VALID,0,
2013-12-16, 03:27:04,VALID,915.476,VALID,0,VALID,87.4863,VALID,0,VALID,19.3518,VALID,21,VALID,0,
2013-12-16, 03:28:04,VALID,915.477,VALID,0,VALID,87.2119,VALID,0,VALID,19.4103,VALID,21,VALID,0,
2013-12-16, 03:29:04,VALID,915.506,VALID,0,VALID,87.0823,VALID,0,VALID,19.4313,VALID,21,VALID,0,
2013-12-16, 03:30:04,VALID,915.502,VALID,0,VALID,87.0747,VALID,0,VALID,19.4298,VALID,21,VALID,0,
2013-12-16, 03:31:04,VALID,915.519,VALID,0,VALID,87.1509,VALID,0,VALID,19.4313,VALID,21,VALID,0,
2013-12-16, 03:32:04,VALID,915.494,VALID,0,VALID,87.1585,VALID,0,VALID,19.3908,VALID,21,VALID,0,
2013-12-16, 03:33:04,VALID,915.46,VALID,0,VALID,87.0594,VALID,0,VALID,19.4118,VALID,21,VALID,0,
2013-12-16, 03:34:04,VALID,915.458,VALID,0,VALID,87.2576,VALID,0,VALID,19.3713,VALID,21,VALID,0,
2013-12-16, 03:35:04,VALID,915.471,VALID,0,VALID,86.9832,VALID,0,VALID,19.4118,VALID,21,VALID,0,
2013-12-16, 03:36:04,VALID,915.497,VALID,0,VALID,86.4267,VALID,0,VALID,19.5288,VALID,21,VALID,0,
2013-12-16, 03:37:04,VALID,915.492,VALID,0,VALID,86.1065,VALID,0,VALID,19.5663,VALID,21,VALID,0,
2013-12-16, 03:38:04,VALID,915.505,VALID,0,VALID,85.7482,VALID,0,VALID,19.5663,VALID,21,VALID,0,
2013-12-16, 03:39:04,VALID,915.478,VALID,0,VALID,85.832,VALID,0,VALID,19.6068,VALID,21,VALID,0,
2013-12-16, 03:40:04,VALID,915.489,VALID,0,VALID,85.8549,VALID,0,VALID,19.6068,VALID,21,VALID,0,
2013-12-16, 03:41:04,VALID,915.474,VALID,0,VALID,85.9159,VALID,0,VALID,19.6053,VALID,21,VALID,0,
2013-12-16, 03:42:04,VALID,915.413,VALID,0,VALID,85.7024,VALID,0,VALID,19.6263,VALID,33,VALID,0,
2013-12-16, 03:43:04,VALID,915.437,VALID,0,VALID,85.55,VALID,0,VALID,19.6653,VALID,54,VALID,0,
2013-12-16, 03:44:04,VALID,915.451,VALID,0,VALID,85.2527,VALID,0,VALID,19.6848,VALID,36,VALID,0,
2013-12-16, 03:45:04,VALID,915.438,VALID,0,VALID,85.1231,VALID,0.107441,VALID,19.6638,VALID,24,VALID,0,
2013-12-16, 03:46:04,VALID,915.448,VALID,0,VALID,84.7038,VALID,0,VALID,19.7043,VALID,6,VALID,0,
2013-12-16, 03:47:04,VALID,915.42,VALID,0,VALID,84.2921,VALID,0,VALID,19.8018,VALID,6,VALID,0,
2013-12-16, 03:48:04,VALID,915.421,VALID,0,VALID,83.9567,VALID,0,VALID,19.8588,VALID,6,VALID,0,
2013-12-16, 03:49:04,VALID,915.416,VALID,0,VALID,84.1244,VALID,0,VALID,19.9173,VALID,358,VALID,0,
2013-12-16, 03:50:04,VALID,915.335,VALID,0,VALID,83.8042,VALID,0,VALID,19.9188,VALID,357,VALID,0,
2013-12-16, 03:51:04,VALID,915.341,VALID,0,VALID,83.667,VALID,0,VALID,19.9758,VALID,4,VALID,0,
2013-12-16, 03:52:04,VALID,915.328,VALID,0,VALID,83.4764,VALID,0,VALID,20.0148,VALID,342,VALID,0,
2013-12-16, 03:53:04,VALID,915.321,VALID,0,VALID,83.4459,VALID,0,VALID,20.0944,VALID,347,VALID,0,
2013-12-16, 03:54:04,VALID,915.3,VALID,0,VALID,83.5221,VALID,0,VALID,20.0944,VALID,358,VALID,0,
2013-12-16, 03:55:04,VALID,915.286,VALID,0,VALID,83.7585,VALID,0,VALID,20.0944,VALID,15,VALID,0,
2013-12-16, 03:56:04,VALID,915.258,VALID,0,VALID,83.9186,VALID,0,VALID,20.0148,VALID,11,VALID,0,
2013-12-16, 03:57:04,VALID,915.271,VALID,0,VALID,83.667,VALID,0,VALID,20.0148,VALID,326,VALID,0,
2013-12-16, 03:58:04,VALID,915.267,VALID,0,VALID,83.5679,VALID,0,VALID,20.0343,VALID,349,VALID,0,
2013-12-16, 03:59:04,VALID,915.26,VALID,0,VALID,83.4764,VALID,0,VALID,20.0538,VALID,1,VALID,0,
2013-12-16, 04:00:04,VALID,915.227,VALID,0,VALID,83.9109,VALID,0,VALID,20.0749,VALID,2,VALID,0,